Location: D�derode
(51.8092°N, 10.1065°E)
Time: 06:10:56
(UTC+00:00)

SKYMED 2 - Pass Details

Date: 01 December 2020
Orbit: 621 x 623 km, 97.9° (Epoch: 23 January)

Event Time Altitude Azimuth Distance (km) Brightness Sun altitude
Exits shadow 18:15:15 41° 328° (NNW) 918 4.5 -27.2°
Maximum altitude 18:16:10 48° 291° (WNW) 824 4.4 -27.4°
Drops below altitude 10° 18:20:20 10° 218° (SW) 1,991 6.6 -28.0°
Sets 18:22:33 0° 212° (SSW) 2,893 7.4 -28.4°
